Location: Andrest
(43.3200°N, 0.0641°E)
Time: 15:17:07
(UTC+00:00)

Meteor 1-27 Rocket - Pass Details

Date: 01 December 2020
Orbit: 830 x 909 km, 81.3° (Epoch: 23 January)

Event Time Altitude Azimuth Distance (km) Brightness Sun altitude
Rises 18:13:08 0° 166° (SSE) 3,360 6.8 -19.1°
Reaches altitude 10° 18:15:40 10° 158° (SSE) 2,434 6.0 -19.6°
Enters shadow 18:20:32 38° 96° (E) 1,252 4.1 -20.4°
